Flag for Uzbekistan Weather past 2 weeks in Tashkent, Uzbekistan

Now
68 °F

Sunny.


Feels Like: 68 °F
Forecast: 64 / 89 °F
Wind: 7 mph from Northeast

Location: Tashkent

Current Time: Sep 1, 2015 at 7:52:18 AM

Latest Report: Sep 1, 2015 at 7:00 AM


Visibility: 10 mi

Pressure: 29.95 "Hg

Humidity: 38%

Dew point: 41 °F

Location of TashkentLocation

Historic Weather in Tashkent — Graph

°F

Tashkent temperature yesterday

Maximum temperature yesterday: 88 °F (at 3:00 PM)
Minimum temperature yesterday: 63 °F (at 5:00 AM)
Average temperature yesterday: 75 °F

Past Weeks' High & Low Weather Summary

 TemperatureHumidityPressure
High104 °F (Aug 19, 3:30 PM)94% (Aug 27, 9:30 PM)30.09 "Hg (Aug 27, 9:30 PM)
Low57 °F (Aug 26, 6:00 AM)7% (Aug 18, 1:00 PM)29.65 "Hg (Aug 22, 2:30 AM)
Average77 °F36%29.88 "Hg
* Reported Aug 17 6:00 AM — Sep 1 6:30 AM, Tashkent, Weather by CustomWeather, © 2015

Note: Actual official high and low records may vary slightly from our data, if they occured in-between our weather recording intervals... More about our weather records

Advertising

Tashkent weather history for previous 24 hours

 ConditionsComfort  
Time TempWeatherWind HumidityBarometerVisibility
6:30 AM
Tue, Sep 1
63 °FSunny.7 mph45%29.95 "Hg10 mi
6:00 AM63 °FSunny.7 mph45%29.95 "Hg10 mi
5:30 AM64 °FClear.7 mph43%29.95 "Hg10 mi
5:00 AM63 °FClear.7 mph45%29.95 "Hg10 mi
4:30 AM63 °FClear.7 mph45%29.95 "Hg10 mi
4:00 AM63 °FClear.8 mph49%29.95 "Hg10 mi
3:30 AM64 °FClear.7 mph46%29.95 "Hg10 mi
3:00 AM64 °FClear.8 mph46%29.95 "Hg10 mi
2:00 AM64 °FClear.7 mph49%29.95 "Hg10 mi
1:30 AM64 °FClear.7 mph52%29.95 "Hg10 mi
1:00 AM64 °FClear.6 mph52%29.95 "Hg10 mi
12:30 AM66 °FClear.6 mph49%29.95 "Hg10 mi
12:00 AM66 °FClear.7 mph49%29.95 "Hg10 mi
11:30 PM
Mon, Aug 31
66 °FClear.8 mph49%29.95 "Hg10 mi
11:00 PM68 °FClear.8 mph49%29.95 "Hg10 mi
10:30 PM70 °FClear.6 mph46%29.95 "Hg10 mi
10:00 PM72 °FClear.7 mph41%29.95 "Hg10 mi
9:30 PM75 °FClear.2 mph34%29.95 "Hg10 mi
9:00 PM77 °FPassing clouds.6 mph32%29.95 "HgN/A
8:30 PM77 °FClear.5 mph32%29.95 "Hg10 mi
8:00 PM79 °FClear.5 mph30%29.95 "Hg2 mi
7:30 PM81 °FPassing clouds.3 mph26%29.95 "HgN/A
7:00 PM82 °FClear.5 mph21%29.92 "Hg10 mi
6:30 PM84 °FSunny.5 mph20%29.92 "Hg10 mi
6:00 PM84 °FSunny.6 mph19%29.92 "Hg10 mi
5:30 PM86 °FSunny.9 mph17%29.92 "Hg10 mi
5:00 PM86 °FPassing clouds.7 mph17%29.92 "HgN/A
4:30 PM88 °FPassing clouds.7 mph18%29.92 "HgN/A
4:00 PM86 °FPassing clouds.9 mph20%29.92 "HgN/A
3:30 PM88 °FPassing clouds.9 mph19%29.92 "HgN/A
3:00 PM88 °FSunny.5 mph21%29.92 "Hg10 mi
2:30 PM86 °FPassing clouds.8 mph20%29.95 "HgN/A
2:00 PM86 °FPassing clouds.10 mph20%29.95 "HgN/A
1:30 PM86 °FSunny.6 mph20%29.95 "Hg10 mi
1:00 PM86 °FPassing clouds.7 mph20%29.95 "HgN/A
12:30 PM84 °FSunny.7 mph20%29.95 "Hg10 mi
12:00 PM84 °FPassing clouds.7 mph23%29.95 "HgN/A
11:30 AM84 °FPassing clouds.6 mph25%29.95 "HgN/A
11:00 AM82 °FPassing clouds.6 mph28%29.98 "HgN/A
10:30 AM81 °FPassing clouds.6 mph30%29.98 "HgN/A
10:00 AM79 °FPassing clouds.7 mph32%29.98 "HgN/A
9:30 AM77 °FPassing clouds.7 mph34%29.98 "HgN/A
9:00 AM75 °FPassing clouds.6 mph34%29.98 "HgN/A
8:30 AM73 °FPassing clouds.5 mph38%29.98 "HgN/A
8:00 AM70 °FPassing clouds.6 mph43%29.98 "HgN/A
7:30 AM70 °FSunny.2 mph40%29.98 "Hg10 mi
7:00 AM66 °FSunny.5 mph49%29.98 "Hg10 mi
Weather by CustomWeather, © 2015

See weather overviewHow to use our weather pages